Regional Weather Roundup
Issued by NWS

Home | Current Version | Previous Version | Text Only | Print | Product List | Glossary On
Versions: 1 2 3 4 5 6 7 8 9 10 11 12 13 14 15 16 17 18 19 20 21 22 23 24 25 26 27 28 29 30 31 32 33 34 35 36 37 38 39 40 41 42 43 44 45 46 47 48 49 50
571
ASUS46 KSEW 291710
RWRWA

WASHINGTON REGIONAL WEATHER ROUNDUP
NATIONAL WEATHER SERVICE SEATTLE WA
1000 AM PDT SUN MAY 29 2016

NOTE:"FAIR" INDICATES FEW OR NO CLOUDS BELOW 12,000 FEET WITH NO
SIGNIFICANT WEATHER AND/OR OBSTRUCTIONS TO VISIBILITY.

WAZ505-507>509-291800-
SEATTLE, TACOMA, EVERETT, AND VICINITY

CITY           SKY/WX    TMP DP  RH WIND       PRES   REMARKS
EVERETT        CLOUDY    51  46  83 N6        30.14R
BOEING FIELD   CLOUDY    54  52  93 NW7       30.12R
RENTON         CLOUDY    58  50  75 S7        30.12R
SEATAC AIRPORT CLOUDY    57  50  77 SW7       30.13R
JBLM-MCCHORD   PTSUNNY   59  53  78 S8        30.12R
PUYALLUP       CLOUDY    59  52  77 VRB7      30.13R
BREMERTON      CLOUDY    52  52 100 NE12      30.14S
JBLM-FT LEWIS  CLOUDY    59  53  79 S9        30.11S
TACOMA NARROWS PTSUNNY   58  51  78 S9        30.12S
$$

WAZ001-503-506-510-514-515-291800-
NORTH INTERIOR

CITY           SKY/WX    TMP DP  RH WIND       PRES   REMARKS
BELLINGHAM     CLOUDY    54  49  83 S10       30.11R
FRIDAY HARBOR  CLOUDY    56  44  64 N6        30.12R
EASTSOUND      MOSUNNY   55  45  67 S3        30.10R
PORT ANGELES   PTSUNNY   55  44  66 NW12      30.13R
EDIZ HOOK      CLOUDY    54  47  77 NW14      30.13R
PORT TOWNSEND  CLOUDY    54  48  82 VRB6      30.13S
NAS WHIDBEY    PTSUNNY   54  50  86 W7        30.16R
ARLINGTON      CLOUDY    52  43  71 CALM      30.15R
BURLINGTON     PTSUNNY   52  50  93 S5        30.13R
$$

WAZ020-022-039-040-504-511-512-291800-
SOUTHWEST INTERIOR

CITY           SKY/WX    TMP DP  RH WIND       PRES   REMARKS
SHELTON        SUNNY     60  47  61 SW18      30.09R
OLYMPIA        PTSUNNY   59  49  69 S9        30.12S
CHEHALIS       PTSUNNY   57  52  82 VRB3      30.15R
KELSO          CLOUDY    59  45  58 NW5       30.18R
VANCOUVER      CLOUDY    60  48  64 W5        30.14R
SCAPPOOSE, OR  CLOUDY    61  43  51 SW6       30.13S
PORTLAND, OR   CLOUDY    60  48  64 NW5       30.15R
$$

WAZ021-516-517-291800-
WASHINGTON COAST

CITY           SKY/WX    TMP DP  RH WIND       PRES   REMARKS
FORKS          PTSUNNY   55  49  80 W6        30.15R
HOQUIAM        MOSUNNY   58  47  66 W8        30.15R
ASTORIA, OR    CLOUDY    57  51  80 NW7       30.16R
$$

WAZ019-023-024-040-518-519-291800-
CASCADE MOUNTAINS AND COLUMBIA GORGE

CITY           SKY/WX    TMP DP  RH WIND       PRES   REMARKS
STAMPEDE PASS  PTSUNNY   45  37  73 VRB7G21   30.08R
TROUTDALE, OR  CLOUDY    61  48  62 CALM      30.14R
THE DALLES, OR SUNNY     67  44  43 NW20G30   30.05S
$$

WAZ026-027-041>044-520-521-291800-
EAST SLOPES

CITY           SKY/WX    TMP DP  RH WIND       PRES   REMARKS
OMAK           CLOUDY    62  42  47 CALM      29.97S
WENATCHEE      MOSUNNY   65  36  34 NW8       29.99S
ELLENSBURG     SUNNY     63  41  44 NW18      30.01S
YAKIMA         SUNNY     68  41  37 CALM      30.00F
$$

WAZ028-034-035-291800-
COLUMBIA BASIN

CITY           SKY/WX    TMP DP  RH WIND       PRES   REMARKS
EPHRATA        SUNNY     67  38  34 SW9       29.98S
MOSES LAKE     SUNNY     66  41  40 SW8       29.99S
PASCO          SUNNY     69  44  40 W5        30.01F
HERMISTON, OR  SUNNY     70  44  39 W20       30.02S
$$

WAZ036>038-291800-
NORTHEAST WASHINGTON

CITY           SKY/WX    TMP DP  RH WIND       PRES   REMARKS
SPOKANE GEIGER PTSUNNY   61  41  47 SW13      29.99S
SPOKANE FELTS  MOSUNNY   66  44  45 S15       29.99F
FAIRCHILD AFB  PTSUNNY   62  43  49 S10       29.99S
COEURDALENE,ID MOSUNNY   63  45  51 SE10      29.97F
DEER PARK      MOSUNNY   62  43  49 S6        29.99F
$$

WAZ029>033-291800-
SOUTHEAST WASHINGTON

CITY           SKY/WX    TMP DP  RH WIND       PRES   REMARKS
PULLMAN        PTSUNNY   61  45  55 W8        30.05S
LEWISTON, ID   PTSUNNY   60  45  57 CALM      30.02F
WALLA WALLA    MOSUNNY   65  45  48 SW12      30.03S
PENDLETON, OR  MOSUNNY   67  42  40 SW15G21   30.03F
$$




USA.gov is the U.S. government's official web portal to all federal, state and local government web resources and services.